Theta_e
294 295 294 293 293 293 291 293 289 293 294 298 300 300 301 303 306 306 306 306 307 307 309 310 309 309 310 309 310 312 312 312 313 316 318 321 321 319 322 320 322 320 327 329
290 293 293 290 292 291 292 292 292 293 293 300 301 302 303 304 305 305 305 305 306 307 308 308 307 308 308 308 308 309 309 310 311 313 314 320 321 323 323 323 324 323 327 328
286 291 289 286 290 291 292 294 293 289 295 300 301 301 301 305 305 304 305 305 306 306 307 307 307 308 307 307 308 308 308 309 310 312 312 316 320 321 323 326 328 327 328 329
286 288 279 291 298 297 295 295 296 297 298 301 301 304 305 305 304 304 305 305 306 306 307 308 308 307 308 307 307 306 306 307 308 310 311 314 318 321 322 324 327 329 329 330
285 284 288 291 294 295 294 295 299 299 300 301 302 302 302 305 306 306 306 306 306 306 305 305 307 306 305 305 306 305 305 305 306 308 310 312 315 318 323 322 324 325 326 329
287 281 280 292 297 301 300 290 301 300 299 299 300 294 298 305 306 305 306 306 305 306 305 305 307 305 303 303 302 303 304 305 306 308 310 311 313 317 320 322 321 321 323 326
284 284 289 296 299 300 287 292 301 301 301 300 298 300 303 305 304 305 305 305 305 304 304 304 305 304 302 302 301 302 303 302 302 305 307 309 312 315 317 319 320 320 320 322
286 283 281 299 298 292 299 303 302 302 301 300 301 299 301 301 302 303 302 302 302 302 302 303 303 304 302 302 303 302 301 301 301 302 304 306 309 312 314 316 317 316 317 318
289 291 298 302 301 304 304 301 301 301 301 299 297 297 298 300 301 301 301 300 300 299 299 299 301 303 298 298 299 299 300 299 300 300 301 303 305 309 309 313 313 313 313 313
293 297 298 301 302 303 303 302 303 302 299 299 296 297 297 300 300 299 299 297 299 299 299 299 299 299 299 298 300 299 297 297 298 299 299 302 302 303 305 307 310 311 311 312
293 297 299 300 301 303 302 303 300 301 300 298 298 298 299 297 298 297 296 296 294 292 291 293 295 296 298 298 298 296 297 297 297 298 299 299 301 302 302 305 307 310 311 312
291 297 297 298 302 302 299 297 298 297 297 300 300 299 298 296 295 295 293 291 291 291 292 293 293 294 295 296 296 295 294 295 296 297 298 300 300 301 297 297 297 294 295 300
297 300 300 301 302 301 298 298 300 299 300 299 300 298 296 294 293 293 290 290 289 290 291 292 292 292 294 295 295 294 294 295 295 295 297 297 298 298 297 298 295 295 293 294
300 298 297 299 295 299 300 300 300 299 300 299 298 296 294 292 290 289 288 288 289 289 289 290 291 291 294 295 295 294 295 293 294 295 296 297 298 298 299 298 298 299 295 296
297 299 299 298 300 300 299 298 297 298 297 296 295 293 292 288 287 286 288 288 288 288 288 289 289 290 292 293 293 293 292 292 293 293 294 294 295 296 297 299 299 300 302 296
298 298 297 298 297 296 297 297 297 295 295 294 293 291 289 288 286 286 286 287 285 285 287 288 289 291 292 292 292 292 292 291 291 292 293 293 294 295 295 295 296 299 300 302
295 295 296 296 294 296 296 298 296 295 295 292 291 289 287 286 285 285 285 286 286 287 289 289 289 290 290 291 291 291 292 293 290 292 292 292 292 293 295 295 295 297 298 300
299 299 298 297 296 296 297 296 295 295 293 292 290 287 284 284 283 283 284 286 288 288 288 287 288 289 289 290 292 292 291 291 292 293 293 293 293 294 295 296 297 298 300 300
298 296 298 298 298 297 297 295 296 295 293 290 287 284 283 283 283 283 284 284 285 283 284 286 288 289 292 293 293 295 293 293 295 296 299 295 298 295 295 297 299 300 301 301
296 297 297 297 298 297 296 296 296 293 292 290 285 283 281 281 282 282 283 283 284 283 284 287 288 291 293 299 295 299 297 297 303 307 305 302 298 297 297 296 300 301 303 302
295 296 296 297 296 297 296 296 294 291 290 288 283 281 281 282 282 281 280 280 282 284 285 286 287 289 294 301 305 306 307 308 311 313 307 305 304 303 303 303 303 304 305 306
296 296 296 296 296 295 296 296 293 291 289 287 284 282 281 280 280 281 282 280 282 283 285 285 286 286 290 293 301 302 303 303 304 304 304 307 308 308 307 306 306 309 310 308
295 296 297 296 295 295 296 294 293 290 288 286 284 281 280 280 280 278 277 281 282 283 284 284 284 286 287 295 296 296 297 298 298 298 299 299 300 301 302 302 303 304 305 305
296 297 296 296 296 295 292 293 293 290 289 288 286 283 281 279 279 281 281 281 282 282 282 283 284 285 287 290 291 291 292 292 294 296 295 292 295 295 296 297 296 297 297 298
296 297 296 295 294 293 293 293 292 290 289 289 287 286 283 282 280 280 281 281 281 281 281 282 283 284 286 287 287 288 287 288 288 291 291 291 292 293 293 293 293 293 294 294
296 295 295 295 295 294 293 292 290 289 288 288 287 287 285 283 282 281 280 280 280 280 280 281 281 282 283 284 285 285 286 286 287 287 287 288 289 289 289 290 290 290 292 292
296 292 294 294 295 294 292 291 289 288 288 288 287 287 287 284 282 281 280 279 279 279 280 280 280 280 281 282 283 284 284 285 284 285 285 286 286 287 287 288 288 289 289 289
Wind_Speed
20 21 19 19 20 19 21 22 23 20 25 23 21 19 18 14 12 12 14 15 14 13 12 12 13 13 13 13 13 13 13 11 8 3 13 18 7 11 8 3 10 11 11 11
18 17 16 20 21 23 25 24 27 25 25 19 17 8 12 13 14 16 16 17 17 16 17 15 15 14 14 15 15 14 15 14 11 8 12 16 11 17 15 16 17 15 16 18
8 10 11 15 20 20 18 20 17 19 16 10 10 13 11 16 17 18 19 20 20 18 17 16 16 15 15 14 16 16 16 16 15 14 13 14 13 14 16 18 19 22 21 19
6 7 9 1 2 4 8 8 7 10 12 13 12 13 15 17 20 21 20 19 19 18 19 19 17 18 17 16 16 17 17 17 17 17 16 15 15 13 14 14 15 16 19 17
4 9 13 17 5 7 8 10 3 10 10 11 14 19 21 18 17 19 20 20 21 21 18 15 18 18 17 19 18 18 19 18 19 19 17 16 16 15 12 11 13 14 16 18
5 5 5 5 4 0 4 10 7 5 11 16 18 17 15 20 24 25 24 21 23 24 24 19 17 18 18 20 20 19 19 18 17 19 17 16 16 15 12 12 13 12 16 16
10 6 7 4 2 3 6 5 9 13 15 17 19 18 26 25 25 24 25 27 25 22 21 22 19 18 20 19 19 18 19 18 19 21 20 18 17 14 14 14 13 14 14 13
6 4 9 3 4 5 8 12 14 16 18 21 23 24 25 26 27 28 27 28 28 22 22 20 18 18 20 22 16 16 17 18 17 15 16 16 20 16 16 15 15 14 12 12
5 3 3 2 8 8 9 12 15 18 21 20 21 23 24 27 29 27 29 20 22 19 19 14 19 21 14 11 13 16 16 14 13 14 16 16 15 15 15 16 15 15 14 13
6 3 4 7 7 6 10 17 18 17 19 20 22 24 25 27 26 22 20 20 23 25 23 22 18 14 15 16 15 15 14 15 14 14 14 14 11 9 12 15 16 16 15 15
13 13 9 8 6 14 18 18 19 20 21 21 21 23 27 26 25 21 21 22 15 16 19 18 15 18 19 16 17 14 15 13 14 13 14 14 13 13 13 13 15 15 16 15
5 6 8 13 15 19 17 17 18 20 22 22 25 26 26 20 20 22 17 20 21 20 20 19 18 18 18 16 14 14 13 12 11 11 11 12 12 13 19 17 19 10 12 9
6 9 12 16 16 14 17 19 20 21 21 24 24 23 21 22 20 21 21 20 20 21 21 19 19 18 16 15 14 13 13 13 10 12 10 11 10 11 12 13 23 26 14 15
8 9 14 14 15 16 17 19 20 20 21 21 22 21 21 16 20 19 19 20 19 20 19 18 18 17 15 14 14 15 14 17 10 10 10 10 11 11 10 11 11 13 19 17
7 10 13 15 16 16 16 17 20 20 21 21 19 18 16 20 20 20 19 18 18 18 17 17 17 16 14 13 13 13 11 9 11 11 11 12 10 10 9 9 10 9 9 13
11 12 13 13 15 16 18 19 19 21 22 18 18 17 20 19 19 18 17 17 16 15 17 16 15 14 12 11 13 11 12 22 17 10 9 10 10 10 11 11 11 8 8 8
12 13 15 15 14 17 18 17 18 19 18 18 17 19 20 19 18 17 18 17 16 17 15 14 15 14 14 13 12 10 10 9 11 10 10 10 10 11 11 11 11 10 11 9
11 13 13 14 14 15 17 18 18 20 18 18 17 18 18 18 18 19 19 20 18 16 13 15 16 16 15 13 12 8 7 8 8 9 9 10 11 11 11 11 11 10 9 9
10 12 13 13 13 14 15 17 18 18 17 16 16 18 17 16 17 18 18 17 15 18 20 21 27 20 13 11 9 7 5 7 8 7 7 1 3 11 10 9 10 9 9 9
10 12 13 13 14 14 15 16 18 17 17 15 14 16 17 17 17 17 16 14 13 12 21 20 19 15 15 12 7 4 6 7 6 7 6 8 10 10 9 10 11 10 9 9
10 12 14 14 14 14 14 15 16 17 16 16 15 16 17 16 16 16 14 12 19 20 20 22 17 14 11 11 10 9 9 9 6 9 8 9 8 9 10 10 10 10 10 10
10 11 12 13 13 14 14 15 15 16 16 15 14 15 16 15 16 15 12 13 14 24 14 13 14 20 13 12 11 11 11 11 10 8 9 9 8 8 6 6 6 7 9 10
9 10 11 12 13 14 15 15 15 16 15 15 14 16 15 12 11 14 15 19 14 18 12 13 20 21 16 12 12 12 13 12 11 10 9 8 8 8 7 8 8 7 7 6
9 9 11 12 12 13 15 16 14 15 14 14 13 13 14 12 11 11 12 16 20 17 14 16 18 20 18 12 12 12 13 12 11 10 10 10 9 8 9 9 8 7 7 6
8 9 10 12 13 11 13 15 13 15 15 15 16 13 14 11 10 12 12 13 18 15 13 20 23 21 14 14 13 13 12 11 12 11 11 10 10 10 9 9 9 8 8 7
9 7 8 11 10 10 10 11 11 12 13 13 13 12 11 10 11 13 13 16 15 17 14 14 15 14 13 14 14 14 12 12 12 12 11 11 11 10 10 10 10 9 8 7
7 7 7 8 9 10 10 11 12 13 14 13 14 14 13 11 13 13 17 15 14 14 14 14 14 17 14 14 14 13 12 12 15 11 11 11 11 11 10 9 9 9 9 10
Wind_Direction
261 270 276 274 270 268 260 256 257 272 275 281 294 313 308 308 297 275 275 286 298 299 299 298 301 305 303 309 311 313 311 308 305 270 295 295 263 288 268 282 276 235 230 237
263 259 265 269 267 264 260 262 265 269 275 287 294 302 289 286 279 283 297 296 298 296 293 297 299 301 302 301 301 301 294 289 282 256 260 261 249 225 206 231 220 246 237 220
252 265 282 271 255 254 259 259 262 261 273 314 295 290 288 286 298 296 296 298 298 295 292 292 296 294 285 294 298 293 289 282 274 262 252 255 243 235 232 222 216 214 218 225
262 295 256 316 356 304 297 299 259 259 269 283 306 317 300 291 295 291 290 295 291 290 289 286 287 294 284 279 285 286 284 280 276 268 263 257 254 234 228 231 223 218 215 213
236 226 279 283 203 258 290 292 250 298 314 333 313 303 284 285 301 304 303 296 296 298 290 283 288 292 291 287 277 278 279 273 274 267 259 258 252 250 232 226 227 221 224 215
197 235 247 59 114 8 304 269 66 355 320 312 310 291 299 327 315 301 299 301 295 287 293 286 282 289 279 272 272 275 286 279 272 267 258 258 256 251 243 226 223 218 217 218
223 242 266 41 158 251 251 34 326 314 308 308 298 299 306 304 302 298 292 286 292 291 285 284 268 270 269 269 263 268 273 269 268 269 262 257 255 247 241 230 227 217 215 208
214 236 253 129 188 252 353 315 313 311 306 305 308 306 301 301 297 295 300 301 293 292 293 291 286 270 272 267 268 274 275 270 262 262 269 246 240 242 238 235 219 222 216 210
235 235 292 229 294 311 308 305 310 308 313 308 299 297 300 297 299 298 290 306 309 298 297 297 300 285 275 260 262 260 259 259 256 256 255 259 255 242 228 228 227 215 211 215
285 232 242 281 297 264 304 313 313 314 303 301 302 302 298 293 293 305 319 306 296 298 293 285 291 274 268 262 256 257 255 249 254 249 247 241 240 243 249 239 223 223 221 220
290 276 320 259 283 323 319 316 317 308 309 310 299 294 299 305 314 316 302 297 303 303 291 286 285 276 273 268 268 258 249 243 242 243 233 231 234 234 228 248 250 228 223 227
285 330 311 300 316 316 313 314 311 307 311 309 305 306 308 320 307 303 307 312 297 302 295 295 294 290 282 275 266 262 255 243 237 239 236 230 228 230 226 232 253 271 275 268
296 318 300 302 301 322 322 310 314 315 311 304 308 315 322 308 305 316 304 303 300 302 301 298 295 291 284 274 262 258 255 251 244 234 232 231 228 225 226 219 227 247 246 261
331 311 300 324 319 309 325 322 316 309 301 316 319 325 310 311 311 310 307 306 304 304 301 297 294 290 287 279 268 258 253 249 247 243 237 234 228 222 219 218 217 219 227 227
281 296 296 294 302 335 323 317 311 318 321 323 326 315 322 317 315 313 309 308 306 302 299 302 297 293 291 286 276 265 256 250 244 242 232 229 229 228 234 228 220 218 204 200
301 298 294 318 330 323 322 319 323 325 326 329 322 328 325 318 314 313 314 314 313 312 307 302 297 296 298 282 262 256 248 241 236 241 237 232 225 220 211 215 220 229 206 197
310 322 328 326 328 322 322 325 329 323 331 329 332 330 323 323 321 322 323 320 315 305 305 306 305 300 291 277 268 260 258 258 239 239 234 227 222 218 215 202 203 207 208 195
314 326 328 324 323 323 324 331 331 335 335 338 335 329 329 330 328 325 324 323 322 328 321 320 309 306 296 283 269 258 256 253 253 251 239 226 216 211 201 201 199 198 188 184
342 336 333 329 332 327 331 334 337 342 341 348 339 334 329 328 326 325 324 324 334 335 333 327 322 321 308 287 271 258 244 254 258 256 251 262 181 169 177 188 185 185 188 168
346 344 337 336 338 337 338 340 343 343 351 349 342 333 336 336 332 330 329 335 345 330 326 323 331 332 329 316 290 255 219 224 269 110 81 93 108 130 147 170 166 173 165 165
347 343 341 345 340 342 353 349 349 353 352 359 347 340 336 330 336 337 338 349 343 340 335 339 346 345 335 352 22 27 33 40 54 74 94 102 109 115 131 144 156 160 169 172
347 348 345 346 344 352 359 358 1 360 357 360 350 343 343 347 345 347 349 351 335 340 342 350 351 344 343 4 24 28 32 37 39 44 45 53 81 94 99 128 154 150 145 165
354 354 348 351 353 359 4 2 9 7 5 4 357 351 354 348 346 350 350 346 345 344 355 355 350 356 2 25 28 28 28 33 39 40 45 49 55 59 65 62 68 78 81 83
1 3 358 356 2 10 8 1 13 12 8 12 13 1 356 353 354 357 342 341 348 358 360 359 1 8 22 26 29 29 28 24 31 37 40 42 48 46 47 57 57 58 62 61
17 8 12 8 13 13 8 5 16 16 9 16 15 13 11 4 0 346 349 350 358 6 5 6 12 18 24 25 29 31 27 26 23 29 33 39 37 38 46 55 56 53 55 49
24 23 16 24 14 18 12 14 16 25 8 12 21 11 18 7 1 3 1 4 8 9 11 11 14 18 21 24 27 28 30 27 28 28 28 34 36 38 35 38 40 38 44 44
61 16 34 26 23 22 26 23 22 18 25 11 22 16 19 24 9 12 13 8 9 14 14 15 17 19 18 21 25 27 29 29 30 30 32 32 32 32 33 36 46 54 48 40